Find OneWeb SL0699

NORAD ID: 61605 Int'l Des: 2024-188 Owner: ONEWEBE Country: UK Constellation: oneweb operational
又名: ONEWEB-0699 spacetrack, celestrak
LEOCIRCULARPOLARONEWEB_TYPE

当前视图

正在加载3D地球...

About OneWeb SL0699

OneWeb SL0699 (NORAD 61605) is a oneweb constellation satellite launched Oct 20, 2024 by ONEWEBE of UK. It operates in LEO, CIRCULAR, POLAR, ONEWEB_TYPE orbit with a mass of 148.00 kg.

即将过境

Passes for default location (London). Set your location on the main map for personalized predictions.

高度历史

Loading altitude history...

两行轨道根数

1 61605U 24188M 26265.72376514 -.00000633 00000-0 -18506-2 0 9993
2 61605 87.8912 16.8517 0001091 91.4156 268.7097 13.10372679 96081
Epoch: Sep 22, 2026 • Age: 17 hours

当前状态

高度 1227.1 km
远地点 / 近地点 N/A
速度 7.24 km/s
星下点 40.97°N, 34.03°E
发射日期 Oct 20, 2024
运行时间 1.9 years
类型 internet

技术详情

分类 Payload
质量 148.00 kg
干质量 140.00 kg
长度 1.30 m
直径 1.00 m
跨度 5.00 m
形状 ? Trapezoid+2 pan
制造商 ONEWUS
平台类型 ARROW
阶段状态 In Orbit
所有者/国家 ONEWEBE/UK

Most Searched